Weather History for South Pass, WY

Change the Weather History Date:

Monday, November 19, 2012

  Actual Average (KLND) Record (KLND)
Temperature  
Mean Temperature 32 °F 29 °F  
Max Temperature 35 °F 41 °F 70 °F (1897)
Min Temperature 28 °F 18 °F -7 °F (1985)
Degree Days  
Heating Degree Days 34 36  
Month to date heating degree days 584  
Since 1 July heating degree days 1445  
Cooling Degree Days 0 0  
Month to date cooling degree days 0  
Year to date cooling degree days 472  
Moisture  
Dew Point 29 °F    
Average Humidity 91    
Maximum Humidity 100    
Minimum Humidity 65    
Precipitation  
Precipitation 0.01 in 0.03 in 0.42 in (1942)
Month to date precipitation 0.58  
Year to date precipitation 11.80  
Snow  
Snow - 0.40 in - ()
Month to date snowfall 8.2  
Since 1 July snowfall 20.7  
Since 1 September snowfall 20.7  
Snow Depth -    
Sea Level Pressure  
Sea Level Pressure 30.14 in    
Wind  
Wind Speed 11 mph ()    
Max Wind Speed 31 mph    
Max Gust Speed 41 mph    
Visibility 6.1 miles    
Events Fog , Snow    
T = Trace of Precipitation, MM = Missing Value Source: Averaged Metar Reports

Daily Weather History Graph

Daily Weather History Graph

Search for Another Location

Airport:

Trip Planner

Search our weather history database for the weather conditions in past years. The results will help you decide how hot, cold, wet, or windy it might be!

Date:

Astronomy

Nov. 19, 2012 Rise Set
Actual Time 7:11 AM MST 4:48 PM MST
Civil Twilight 6:41 AM MST 5:19 PM MST
Nautical Twilight 6:06 AM MST 5:54 PM MST
Astronomical Twilight 5:33 AM MST 6:27 PM MST
Moon 12:13 PM MST (11/19) 11:23 PM MST (11/19)
Length of Visible Light 10h 38m
Length of Day
9h 37m
Waxing Crescent, 41% of the Moon is Illuminated
Nov 19
Waxing Crescent
Nov 20
First Quarter
Nov 28
Full
Dec 6
Last Quarter
Dec 13
New

Hourly Weather History & Observations

Time (MST) Temp. Windchill Dew Point Humidity Pressure Visibility Wind Dir Wind Speed Gust Speed Precip Events Conditions
12:15 AM 30.2 °F 21.3 °F 30.2 °F 100% - 3.0 mi SW 10.4 mph 16.1 mph N/A Snow Light Snow
12:35 AM 30.2 °F 21.9 °F 30.2 °F 100% - 0.5 mi South 9.2 mph - N/A Snow Snow
12:55 AM 30.2 °F 24.3 °F 30.2 °F 100% - 0.5 mi South 5.8 mph - N/A Snow Light Snow
1:15 AM 30.2 °F 24.3 °F 30.2 °F 100% - 0.5 mi SSW 5.8 mph - N/A Snow Light Snow
1:35 AM 30.2 °F 20.8 °F 30.2 °F 100% 30.07 in 0.2 mi SW 11.5 mph 18.4 mph N/A   Overcast
2:15 AM 30.2 °F 18.9 °F 30.2 °F 100% 30.08 in 0.2 mi WSW 16.1 mph 20.7 mph N/A Snow Heavy Snow
2:35 AM 30.2 °F 19.3 °F 30.2 °F 100% 30.09 in 0.2 mi WSW 15.0 mph 20.7 mph N/A Snow Heavy Snow
3:15 AM 30.2 °F 19.8 °F 30.2 °F 100% 30.08 in 0.2 mi WSW 13.8 mph - N/A Fog Light Freezing Fog
3:35 AM 30.2 °F 20.8 °F 30.2 °F 100% 30.09 in 0.2 mi SW 11.5 mph 18.4 mph N/A Snow Light Snow
4:15 AM 30.2 °F 22.6 °F 30.2 °F 100% 30.09 in 3.0 mi WSW 8.1 mph - N/A   Overcast
4:35 AM 30.2 °F 25.4 °F 30.2 °F 100% 30.10 in 7.0 mi WSW 4.6 mph 17.3 mph N/A   Overcast
4:55 AM 30.2 °F 26.7 °F 30.2 °F 100% 30.09 in 7.0 mi SW 3.5 mph - N/A   Overcast
5:15 AM 30.2 °F 26.7 °F 28.4 °F 93% 30.10 in 10.0 mi WSW 3.5 mph - N/A   Overcast
5:35 AM 30.2 °F - 28.4 °F 93% 30.11 in 10.0 mi Calm Calm - N/A   Overcast
5:55 AM 30.2 °F 26.7 °F 28.4 °F 93% 30.11 in 10.0 mi WSW 3.5 mph - N/A   Overcast
6:15 AM 30.2 °F 24.3 °F 28.4 °F 93% 30.11 in 10.0 mi SW 5.8 mph - N/A   Overcast
6:35 AM 30.2 °F 21.9 °F 28.4 °F 93% 30.12 in 10.0 mi WSW 9.2 mph - N/A   Overcast
6:55 AM 30.2 °F 22.6 °F 28.4 °F 93% 30.13 in 10.0 mi WSW 8.1 mph - N/A   Overcast
7:15 AM 28.4 °F 19.7 °F 28.4 °F 100% 30.14 in 10.0 mi SW 9.2 mph - N/A   Overcast
7:35 AM 28.4 °F 20.4 °F 28.4 °F 100% 30.15 in 1.5 mi SW 8.1 mph - N/A   Overcast
7:55 AM 28.4 °F 19.7 °F 28.4 °F 100% 30.15 in 2.5 mi SW 9.2 mph - N/A   Overcast
8:15 AM 28.4 °F 19.1 °F 28.4 °F 100% 30.16 in 0.2 mi WSW 10.4 mph - N/A Fog Light Freezing Fog
8:35 AM 30.2 °F 21.9 °F 28.4 °F 93% 30.17 in 0.8 mi SW 9.2 mph - N/A   Overcast
8:55 AM 28.4 °F 20.4 °F 28.4 °F 100% 30.16 in 0.2 mi SW 8.1 mph - N/A Fog Light Freezing Fog
9:35 AM 30.2 °F 21.9 °F 30.2 °F 100% 30.17 in 0.2 mi SW 9.2 mph - N/A Fog Light Freezing Fog
9:55 AM 30.2 °F 21.3 °F 30.2 °F 100% 30.18 in 0.2 mi SW 10.4 mph - N/A Fog Light Freezing Fog
10:15 AM 30.2 °F 21.9 °F 30.2 °F 100% 30.19 in 0.2 mi SW 9.2 mph - N/A Snow Light Snow
10:35 AM 32.0 °F 21.6 °F 32.0 °F 100% 30.18 in 0.2 mi WSW 15.0 mph - N/A Fog Light Freezing Fog
10:55 AM 32.0 °F 22.5 °F 32.0 °F 100% 30.19 in 0.2 mi WSW 12.7 mph 18.4 mph N/A Fog Light Freezing Fog
11:15 AM 32.0 °F 21.6 °F 32.0 °F 100% 30.17 in 0.2 mi SW 15.0 mph - N/A Fog Light Freezing Fog
11:35 AM 32.0 °F 21.2 °F 32.0 °F 100% 30.16 in 0.2 mi SW 16.1 mph 25.3 mph N/A Fog Light Freezing Fog
11:55 AM 32.0 °F 20.5 °F 32.0 °F 100% 30.15 in 0.8 mi WSW 18.4 mph 28.8 mph N/A   Overcast
12:15 PM 32.0 °F 19.5 °F 32.0 °F 100% 30.13 in 0.2 mi SW 21.9 mph 26.5 mph N/A Fog Fog
12:35 PM 32.0 °F 18.4 °F 32.0 °F 100% 30.13 in 2.5 mi SW 26.5 mph 33.4 mph N/A   Mist
12:55 PM 32.0 °F 18.6 °F 32.0 °F 100% 30.12 in 3.0 mi WSW 25.3 mph 33.4 mph N/A   Mist
1:15 PM 32.0 °F 17.6 °F 32.0 °F 100% 30.11 in 2.5 mi WSW 29.9 mph 34.5 mph N/A   Mist
1:35 PM 32.0 °F 19.5 °F 32.0 °F 100% 30.12 in 5.0 mi WSW 21.9 mph 32.2 mph N/A   Clear
1:55 PM 33.8 °F 23.2 °F 32.0 °F 93% 30.12 in 10.0 mi WSW 17.3 mph 28.8 mph N/A   Clear
2:15 PM 33.8 °F 23.2 °F 32.0 °F 93% 30.11 in 10.0 mi WSW 17.3 mph 29.9 mph N/A   Scattered Clouds
2:35 PM 33.8 °F 21.6 °F 32.0 °F 93% 30.11 in 10.0 mi WSW 23.0 mph 27.6 mph 0.01 in   Clear
2:55 PM 33.8 °F 21.9 °F 32.0 °F 93% 30.10 in 7.0 mi West 21.9 mph 33.4 mph 0.01 in   Clear
3:15 PM 33.8 °F 21.3 °F 30.2 °F 87% 30.12 in 7.0 mi WSW 24.2 mph 28.8 mph N/A   Clear
3:35 PM 33.8 °F 24.8 °F 30.2 °F 87% 30.15 in 10.0 mi WNW 12.7 mph 19.6 mph N/A   Clear
3:55 PM 33.8 °F 27.7 °F 30.2 °F 87% 30.16 in 10.0 mi West 6.9 mph 16.1 mph N/A   Clear
4:15 PM 33.8 °F 22.5 °F 30.2 °F 87% 30.14 in 10.0 mi WSW 19.6 mph - N/A   Clear
4:35 PM 33.8 °F 21.6 °F 30.2 °F 87% 30.13 in 10.0 mi WSW 23.0 mph 29.9 mph N/A   Clear
4:55 PM 33.8 °F 25.8 °F 30.2 °F 87% 30.15 in 10.0 mi WSW 10.4 mph 26.5 mph N/A   Clear
5:15 PM 33.8 °F 25.8 °F 30.2 °F 87% 30.16 in 10.0 mi WSW 10.4 mph - N/A   Scattered Clouds
5:35 PM 33.8 °F 24.8 °F 30.2 °F 87% 30.16 in 10.0 mi WSW 12.7 mph - N/A   Scattered Clouds
5:55 PM 32.0 °F 21.6 °F 30.2 °F 93% 30.17 in 10.0 mi WSW 15.0 mph 23.0 mph N/A   Clear
6:15 PM 32.0 °F 21.2 °F 30.2 °F 93% 30.16 in 10.0 mi WSW 16.1 mph 20.7 mph N/A   Clear
6:35 PM 33.8 °F 23.9 °F 28.4 °F 81% 30.15 in 10.0 mi West 15.0 mph 23.0 mph N/A   Clear
6:55 PM 32.0 °F 21.6 °F 28.4 °F 87% 30.14 in 10.0 mi WSW 15.0 mph 21.9 mph N/A   Clear
7:15 PM 33.8 °F 23.9 °F 28.4 °F 81% 30.15 in 10.0 mi West 15.0 mph 21.9 mph N/A   Clear
7:35 PM 33.8 °F 24.8 °F 28.4 °F 81% 30.14 in 10.0 mi West 12.7 mph 19.6 mph N/A   Clear
7:55 PM 33.8 °F 25.3 °F 26.6 °F 75% 30.13 in 10.0 mi West 11.5 mph 26.5 mph N/A   Clear
8:15 PM 33.8 °F 27.0 °F 24.8 °F 70% 30.13 in 10.0 mi WNW 8.1 mph 21.9 mph N/A   Clear
8:35 PM 33.8 °F 22.2 °F 26.6 °F 75% 30.11 in 10.0 mi West 20.7 mph 32.2 mph N/A   Clear
8:55 PM 33.8 °F 19.9 °F 26.6 °F 75% 30.10 in 10.0 mi West 31.1 mph 41.4 mph N/A   Clear
9:15 PM 35.6 °F 24.2 °F 24.8 °F 65% 30.14 in 10.0 mi WSW 21.9 mph 36.8 mph N/A   Clear
9:35 PM 35.6 °F 29.9 °F 24.8 °F 65% 30.17 in 10.0 mi SW 6.9 mph 21.9 mph N/A   Clear
9:55 PM 33.8 °F 27.0 °F 24.8 °F 70% 30.16 in 10.0 mi West 8.1 mph - N/A   Clear
10:15 PM 32.0 °F 27.5 °F 26.6 °F 80% 30.16 in 10.0 mi SSW 4.6 mph - N/A   Clear
10:35 PM 32.0 °F 25.6 °F 26.6 °F 80% 30.15 in 10.0 mi WSW 6.9 mph - N/A   Clear
10:55 PM 33.8 °F 27.0 °F 26.6 °F 75% 30.15 in 10.0 mi West 8.1 mph - N/A   Clear
11:15 PM 33.8 °F 25.8 °F 26.6 °F 75% 30.15 in 10.0 mi West 10.4 mph 23.0 mph N/A   Clear
11:35 PM 33.8 °F 23.5 °F 26.6 °F 75% 30.16 in 10.0 mi WSW 16.1 mph 21.9 mph N/A   Clear
11:55 PM 33.8 °F 22.8 °F 26.6 °F 75% 30.15 in 10.0 mi WSW 18.4 mph 26.5 mph N/A   Clear